Wind_Speed
19 21 22 23 24 24 25 25 26 27 27 28 29 30 31 32 33 34 36 38 40 42 44 45 46 47 46 46 46 46 46 44 43 40 39 37 35 34 33 31 30 30 30 30
19 20 21 22 22 23 23 24 25 26 26 27 28 30 32 33 34 35 37 38 40 41 43 45 46 47 48 48 47 47 48 48 47 45 42 41 39 38 36 35 34 33 32 31
18 19 20 20 21 22 22 23 24 25 26 27 29 31 31 33 34 36 37 39 40 41 42 43 45 46 46 47 47 47 47 47 48 46 45 44 42 40 39 38 37 37 36 34
17 18 19 20 21 22 23 23 23 24 26 27 29 30 30 31 33 35 37 38 39 39 40 41 42 43 43 44 44 43 44 44 45 44 44 44 43 42 42 41 40 40 39 36
16 17 18 19 20 21 21 22 22 23 25 26 26 27 27 28 30 32 34 35 35 36 36 36 37 37 37 38 39 40 40 41 42 42 43 43 43 42 42 42 42 42 41 39
14 15 16 18 19 20 20 20 20 21 22 22 22 24 25 25 26 27 28 29 30 30 30 29 28 28 28 29 30 32 34 35 37 38 39 40 41 41 41 42 42 41 40 38
14 15 17 18 18 19 19 18 18 18 18 18 19 21 22 22 22 21 22 23 23 23 21 20 19 19 20 20 21 24 26 29 30 32 34 35 36 37 38 38 38 38 37 36
14 15 16 16 17 17 16 15 15 15 16 17 18 19 19 19 19 20 19 19 18 16 15 14 12 11 12 12 14 17 20 22 24 25 27 29 31 32 33 34 34 34 34 34
13 13 14 15 15 14 13 13 13 14 15 15 16 16 17 18 18 18 18 16 15 14 12 9 8 7 7 8 10 10 13 16 18 20 22 24 26 27 28 29 30 31 32 32
13 13 14 14 13 13 14 14 14 14 14 14 14 15 16 16 16 17 17 16 15 13 12 10 8 8 8 7 6 6 6 9 12 14 15 17 19 21 23 25 27 29 30 31
14 14 15 14 14 14 15 15 15 14 14 14 15 16 17 16 17 17 17 17 16 16 14 13 12 11 10 9 9 8 7 6 6 7 8 10 12 15 17 19 22 23 25 27
16 15 15 15 15 16 16 17 16 15 14 15 15 16 17 18 18 18 19 19 18 18 17 17 15 15 13 13 12 12 11 10 9 7 5 4 5 7 9 11 13 15 17 19
17 16 16 16 17 18 18 17 17 16 15 16 17 17 17 18 18 19 19 20 20 20 20 19 19 18 16 15 14 14 13 13 13 12 11 9 6 5 4 4 5 7 9 11
18 17 17 18 18 18 18 18 17 17 17 17 17 18 18 19 20 19 19 20 21 21 21 21 21 21 21 20 19 17 17 16 15 14 13 12 11 9 7 6 5 5 5 6
19 18 18 18 18 18 18 18 18 18 18 18 18 19 19 19 20 20 21 21 22 23 22 22 22 23 22 22 21 20 20 19 18 16 16 15 13 12 11 10 8 7 7 7
20 19 18 18 18 18 18 18 18 18 18 18 19 19 20 20 20 21 21 21 22 22 23 23 22 22 22 22 22 21 21 20 19 18 17 16 15 14 13 12 11 9 8 8
19 19 18 17 18 18 17 17 17 18 17 18 19 19 20 20 20 21 21 21 22 22 22 22 21 21 21 21 21 21 21 21 21 20 19 18 17 16 15 13 12 11 11 10
17 18 18 17 17 17 17 17 17 17 17 17 17 18 19 20 20 20 21 20 20 20 21 21 21 21 21 21 21 21 21 22 21 21 21 21 20 19 18 17 15 14 13 12
14 16 17 17 16 17 17 16 16 16 16 16 16 17 17 18 18 19 19 19 19 19 20 20 20 20 20 21 21 21 22 22 22 22 22 22 22 21 21 20 18 17 17 16
11 13 14 15 16 16 16 16 15 15 15 14 14 15 15 16 16 16 16 17 17 18 18 19 19 19 19 20 20 20 21 22 22 22 23 23 23 23 23 23 21 20 20 19
9 10 11 13 14 15 15 15 14 13 13 13 12 13 13 13 14 14 15 15 16 17 18 18 18 18 18 19 20 20 20 21 21 22 23 24 24 24 24 24 23 23 22 22
8 8 9 10 12 13 14 14 14 12 12 11 11 10 10 11 11 12 13 14 15 15 17 18 18 18 18 18 19 20 20 20 20 21 22 23 23 24 24 24 25 25 24 24
7 7 7 8 8 10 12 12 13 12 11 10 9 9 8 8 8 9 10 12 13 14 15 16 17 17 17 18 19 20 20 20 20 20 21 22 23 23 23 24 24 25 25 25
8 7 7 7 6 7 8 10 11 11 11 10 9 8 7 7 7 7 8 9 11 13 13 14 15 16 16 17 18 19 20 20 20 20 21 21 22 23 23 23 24 24 25 26
10 9 8 7 7 6 6 7 8 9 10 9 9 8 8 8 7 7 8 8 9 11 12 13 13 14 15 16 16 17 18 19 20 20 21 21 21 22 23 23 23 24 25 25
12 11 10 9 8 7 6 6 6 7 8 8 8 8 8 8 8 8 8 8 9 10 11 11 11 12 13 14 14 15 17 18 19 20 20 21 21 21 22 22 23 24 24 24
Wind_Direction
272 277 281 285 288 290 290 290 290 290 290 289 290 290 290 289 286 283 281 279 277 275 272 269 266 264 262 260 258 255 254 252 249 249 248 249 250 250 251 254 258 259 260 261
280 284 288 290 292 292 291 291 290 290 291 291 291 291 291 290 288 286 284 282 279 278 275 272 270 267 265 262 259 257 256 253 251 250 250 250 251 253 254 254 257 259 262 263
287 291 293 295 296 295 295 296 295 295 296 295 295 294 294 292 290 288 286 284 281 278 277 275 273 270 267 265 262 260 259 256 253 252 251 252 253 255 256 256 256 257 261 263
295 298 300 301 302 302 302 300 298 298 298 298 298 297 298 296 294 292 290 289 286 283 281 278 275 272 270 267 265 264 263 259 256 253 252 251 252 253 254 256 258 259 260 262
305 308 308 308 309 308 307 304 302 301 301 301 302 300 302 301 299 297 296 294 291 287 286 284 281 275 271 269 266 264 263 262 259 256 255 254 254 253 253 254 256 258 259 260
316 317 315 315 314 313 312 309 307 305 305 306 308 308 309 309 307 304 302 299 297 294 290 288 285 277 273 271 266 262 261 259 257 256 255 254 254 254 254 253 255 257 259 261
327 324 322 321 321 321 320 318 315 314 315 316 316 317 319 320 319 318 315 312 308 302 296 293 289 282 277 274 267 262 262 258 255 253 254 254 254 255 255 255 255 256 258 259
335 332 331 331 332 332 331 327 325 325 325 325 326 327 329 332 333 333 333 330 328 322 313 307 302 292 287 280 272 269 265 260 257 255 255 256 256 256 257 256 255 255 256 258
350 348 348 349 349 348 347 343 338 336 335 337 339 340 341 343 347 348 348 347 344 344 343 335 327 317 311 301 291 283 274 265 262 260 261 261 261 260 259 257 256 256 257 259
7 3 4 5 7 5 359 353 350 349 353 355 357 359 0 1 3 6 8 7 4 5 10 11 14 9 355 347 342 332 314 292 279 272 270 268 267 266 263 260 259 260 261 262
18 17 17 16 15 9 5 3 1 2 7 11 12 13 15 16 18 21 20 20 23 27 31 36 35 33 35 31 32 26 14 1 335 306 286 278 275 272 269 266 264 263 263 264
24 24 26 24 19 16 14 14 15 18 24 25 23 24 25 27 28 28 28 30 33 38 45 48 45 42 41 39 38 37 33 29 25 21 359 325 301 289 280 275 271 268 266 265
28 30 29 26 23 22 22 22 25 31 34 34 32 32 30 33 36 37 38 40 43 46 49 50 49 46 47 47 45 44 43 40 40 39 37 35 30 19 1 333 305 282 272 269
29 31 31 29 28 27 27 28 31 35 39 39 37 36 37 39 40 42 43 46 49 51 54 55 55 54 53 52 52 51 49 48 46 44 42 41 41 36 26 15 359 337 316 293
30 32 33 32 30 29 29 31 35 39 41 42 42 43 42 41 44 48 51 53 55 56 57 58 57 56 55 53 51 51 50 48 47 46 44 40 36 32 26 19 12 1 348 336
29 30 32 32 30 29 30 34 38 41 44 47 48 48 47 47 50 52 54 55 56 58 58 57 56 55 53 51 50 48 47 46 44 42 39 36 32 28 23 18 11 4 354 343
27 27 29 31 30 30 33 35 39 42 46 48 50 50 52 52 54 56 58 59 59 59 57 55 54 53 51 49 47 46 44 43 42 40 38 35 33 30 25 20 15 9 1 354
24 25 27 29 30 32 33 37 41 44 47 51 53 53 54 55 57 59 61 60 58 56 54 53 53 52 50 48 45 43 41 40 39 38 36 35 34 32 30 27 23 18 11 0
20 22 25 26 28 31 33 36 39 43 47 52 56 56 57 58 59 60 58 57 56 54 53 52 51 48 46 44 43 41 39 38 38 38 37 37 35 34 33 31 29 25 20 13
11 17 21 24 26 29 31 35 39 42 48 51 57 58 59 60 59 57 56 56 54 51 49 47 46 44 42 41 40 39 38 37 37 38 38 37 36 35 34 33 31 28 24 19
357 5 12 18 22 26 28 32 36 42 44 50 58 61 60 59 59 57 54 53 49 47 45 44 43 42 41 40 39 37 37 37 36 36 36 36 36 35 34 33 32 30 27 24
336 348 357 7 16 22 25 28 32 36 40 47 54 60 61 59 56 53 51 49 46 44 42 42 42 42 42 41 39 37 35 35 34 34 35 34 34 33 33 33 32 31 29 27
309 324 336 349 3 14 22 27 29 32 37 41 46 52 57 55 51 48 46 44 41 39 38 38 39 40 40 39 37 35 34 34 33 32 33 33 32 32 31 31 31 31 31 30
286 296 307 318 334 353 8 17 23 28 33 36 39 42 44 45 43 40 37 35 34 33 34 34 35 36 36 35 34 34 34 33 32 31 30 30 30 30 30 30 30 31 32 32
275 279 285 291 302 319 340 358 10 18 24 29 31 34 35 36 35 32 29 28 28 28 28 29 30 31 31 32 32 31 32 32 30 29 28 27 27 28 29 29 30 30 31 32
271 273 275 277 280 288 304 321 341 359 10 17 21 24 26 28 29 28 26 24 22 22 22 23 23 22 23 25 26 27 28 28 29 28 27 26 25 26 26 27 28 29 30 32
Height
5891 5891 5888 5887 5885 5883 5881 5878 5876 5874 5872 5870 5868 5865 5863 5861 5859 5856 5854 5852 5849 5848 5846 5845 5845 5845 5845 5846 5847 5848 5850 5852 5854 5855 5857 5858 5859 5861 5862 5862 5863 5864 5865 5866
5888 5887 5885 5883 5881 5879 5876 5874 5871 5869 5867 5864 5861 5859 5856 5853 5850 5848 5845 5842 5839 5837 5835 5833 5832 5832 5832 5833 5834 5835 5838 5840 5843 5845 5847 5849 5851 5853 5854 5856 5857 5857 5858 5859
5885 5884 5881 5879 5876 5874 5871 5869 5866 5863 5860 5858 5855 5852 5849 5845 5842 5839 5835 5832 5828 5826 5824 5822 5820 5819 5819 5820 5821 5823 5825 5828 5831 5834 5837 5840 5842 5844 5846 5848 5849 5850 5850 5851
5882 5879 5877 5875 5872 5868 5866 5863 5860 5857 5854 5852 5849 5845 5842 5838 5834 5830 5825 5821 5818 5815 5812 5810 5808 5807 5807 5808 5809 5811 5813 5816 5819 5822 5826 5829 5832 5836 5838 5839 5840 5842 5843 5844
5879 5876 5873 5871 5867 5864 5861 5858 5855 5852 5849 5846 5843 5840 5837 5832 5827 5822 5817 5813 5808 5805 5802 5799 5797 5796 5796 5797 5798 5800 5802 5805 5808 5811 5815 5818 5822 5825 5828 5830 5831 5833 5834 5836
5876 5873 5870 5867 5864 5860 5857 5854 5851 5848 5845 5842 5838 5835 5831 5826 5821 5816 5811 5805 5800 5797 5793 5791 5789 5787 5788 5788 5788 5790 5792 5794 5797 5801 5804 5808 5812 5815 5818 5820 5822 5824 5826 5828
5874 5871 5868 5864 5860 5857 5854 5851 5847 5844 5841 5838 5834 5830 5827 5821 5816 5811 5806 5800 5795 5791 5787 5785 5782 5781 5781 5781 5781 5782 5784 5786 5788 5792 5795 5798 5802 5805 5808 5810 5813 5815 5817 5819
5872 5869 5865 5861 5858 5854 5850 5848 5845 5842 5838 5835 5831 5827 5823 5817 5812 5807 5802 5797 5792 5788 5784 5782 5780 5778 5777 5777 5777 5778 5779 5780 5782 5785 5788 5790 5793 5796 5799 5801 5804 5806 5809 5811
5871 5868 5864 5860 5856 5853 5849 5846 5844 5841 5836 5833 5829 5825 5821 5815 5811 5806 5801 5796 5792 5787 5783 5781 5779 5777 5776 5776 5775 5775 5776 5776 5778 5780 5782 5784 5786 5788 5791 5793 5796 5798 5800 5802
5871 5867 5864 5860 5856 5853 5850 5846 5843 5839 5835 5832 5828 5824 5821 5815 5811 5806 5801 5797 5792 5788 5784 5782 5780 5778 5776 5776 5775 5774 5774 5774 5775 5776 5777 5778 5780 5782 5784 5786 5788 5790 5792 5793
5871 5868 5864 5860 5856 5853 5850 5846 5842 5838 5835 5832 5828 5827 5821 5816 5811 5807 5803 5799 5794 5790 5787 5784 5782 5780 5778 5777 5776 5775 5774 5773 5773 5773 5774 5774 5775 5776 5778 5779 5780 5782 5783 5785
5872 5868 5864 5861 5858 5854 5851 5847 5843 5840 5836 5832 5829 5829 5822 5817 5813 5809 5805 5801 5797 5793 5790 5788 5785 5783 5781 5780 5778 5777 5776 5775 5774 5773 5773 5772 5773 5773 5774 5774 5775 5775 5776 5777
5873 5870 5866 5863 5861 5857 5852 5848 5844 5841 5837 5834 5831 5831 5824 5820 5816 5812 5808 5805 5801 5797 5795 5792 5790 5787 5785 5783 5782 5780 5779 5777 5776 5775 5774 5773 5772 5772 5772 5772 5772 5772 5772 5772
5875 5871 5869 5866 5862 5857 5854 5850 5847 5843 5840 5836 5834 5830 5826 5823 5819 5815 5812 5808 5805 5802 5799 5797 5795 5792 5790 5788 5786 5784 5782 5780 5779 5778 5776 5775 5774 5773 5772 5771 5771 5770 5769 5769
5877 5873 5869 5866 5863 5860 5857 5853 5850 5846 5843 5839 5836 5833 5829 5826 5822 5819 5816 5813 5810 5807 5805 5802 5800 5797 5795 5793 5791 5788 5786 5784 5782 5781 5779 5778 5776 5774 5773 5772 5770 5769 5768 5767
5879 5875 5872 5869 5866 5863 5860 5856 5853 5849 5846 5843 5839 5837 5833 5830 5826 5823 5820 5818 5815 5812 5810 5808 5805 5803 5801 5798 5796 5793 5791 5788 5786 5784 5782 5780 5778 5776 5774 5772 5770 5769 5768 5766
5881 5878 5875 5872 5869 5866 5863 5859 5856 5853 5849 5846 5843 5841 5837 5834 5831 5828 5825 5823 5820 5818 5816 5813 5811 5808 5806 5803 5801 5798 5795 5793 5790 5787 5785 5782 5779 5777 5775 5773 5771 5769 5767 5765
5883 5880 5877 5874 5872 5869 5868 5862 5859 5856 5853 5850 5847 5844 5841 5838 5836 5833 5830 5828 5826 5823 5821 5819 5816 5814 5811 5808 5806 5803 5800 5797 5794 5791 5788 5785 5782 5779 5776 5774 5771 5769 5767 5764
5885 5883 5880 5877 5874 5871 5869 5865 5861 5859 5856 5853 5850 5848 5845 5843 5840 5838 5835 5833 5831 5829 5826 5824 5821 5819 5816 5813 5810 5807 5804 5801 5798 5794 5791 5788 5785 5782 5779 5775 5772 5770 5767 5763
5886 5885 5882 5879 5876 5874 5872 5868 5864 5862 5859 5857 5854 5851 5849 5847 5845 5843 5840 5838 5836 5833 5831 5828 5825 5823 5820 5817 5814 5811 5808 5805 5802 5798 5795 5792 5788 5785 5781 5778 5774 5771 5767 5764
5887 5885 5883 5881 5878 5876 5873 5870 5867 5865 5864 5860 5857 5855 5853 5851 5849 5847 5844 5842 5840 5837 5835 5832 5829 5827 5824 5821 5818 5815 5812 5809 5806 5802 5799 5795 5792 5788 5784 5781 5777 5773 5769 5765
5887 5885 5884 5882 5880 5880 5875 5872 5870 5868 5864 5862 5859 5857 5856 5854 5852 5850 5847 5845 5843 5841 5838 5836 5833 5830 5828 5825 5822 5819 5816 5813 5810 5806 5803 5799 5795 5792 5788 5784 5780 5776 5771 5767
5886 5885 5884 5883 5883 5879 5876 5874 5872 5869 5866 5863 5861 5859 5858 5856 5854 5852 5850 5848 5846 5844 5841 5839 5836 5834 5831 5828 5825 5822 5819 5816 5813 5810 5806 5803 5799 5795 5791 5787 5783 5779 5774 5770
5884 5883 5883 5882 5881 5879 5877 5875 5873 5870 5868 5865 5863 5861 5859 5858 5856 5854 5852 5851 5849 5846 5844 5842 5839 5836 5834 5831 5828 5826 5823 5819 5816 5813 5810 5806 5803 5799 5795 5791 5786 5782 5778 5773
5882 5881 5881 5880 5879 5878 5877 5875 5873 5871 5869 5867 5865 5863 5861 5859 5857 5856 5854 5852 5850 5848 5846 5844 5841 5839 5836 5834 5831 5828 5825 5822 5819 5816 5813 5809 5806 5802 5798 5794 5790 5786 5781 5776
5879 5879 5879 5878 5878 5877 5876 5874 5873 5871 5869 5868 5866 5864 5862 5860 5858 5856 5855 5853 5851 5849 5847 5845 5843 5840 5838 5836 5833 5830 5828 5825 5822 5819 5816 5812 5809 5805 5801 5797 5793 5789 5785 5780